This is the latest recevied weather packets stored in our database for station/object N0NPO. If no packets are shown the sender has not sent any weather packets the latest 10 day(s).
| Time | Temp. | Humidity | Pressure | Rain* | Wind** | Luminosity | Snow |
|---|---|---|---|---|---|---|---|
| 1777638964 | -0.56° C | 1% | 1024.5 hPa | 0 mm | - | 42 W/m² | - |
| 1777638660 | 0° C | 1% | 1024.5 hPa | 0 mm | - | 38 W/m² | - |
| 1777638356 | -0.56° C | 1% | 1024.5 hPa | 0 mm | - | 34 W/m² | - |
| 1777638053 | 0° C | 1% | 1024.5 hPa | 0 mm | - | 31 W/m² | - |
| 1777637749 | 0.56° C | 1% | 1024.6 hPa | 0 mm | - | 28 W/m² | - |
| 1777637446 | 0.56° C | 1% | 1024.3 hPa | 0 mm | - | 23 W/m² | - |
| 1777637143 | 0.56° C | 1% | 1024.4 hPa | 0 mm | - | 21 W/m² | - |
| 1777636840 | 0.56° C | 1% | 1024.3 hPa | 0 mm | - | 16 W/m² | - |
| 1777636536 | 0° C | 1% | 1024.4 hPa | 0 mm | - | 13 W/m² | - |
| 1777636232 | -0.56° C | 1% | 1024.3 hPa | 0 mm | - | 9 W/m² | - |
| 1777635932 | -0.56° C | 1% | 1024.5 hPa | 0 mm | - | 7 W/m² | - |
| 1777635628 | -0.56° C | 1% | 1024.4 hPa | 0 mm | - | 4 W/m² | - |
| 1777635325 | -0.56° C | 1% | 1024.5 hPa | 0 mm | - | 1 W/m² | - |
| 1777635022 | 0° C | 1% | 1024.5 hPa | 0 mm | - | 0 W/m² | - |
| 1777634718 | 0° C | 1% | 1024.3 hPa | 0 mm | - | 0 W/m² | - |
| 1777634416 | 0° C | 1% | 1024.3 hPa | 0 mm | - | 0 W/m² | - |
| 1777634112 | 0° C | 1% | 1024.4 hPa | 0 mm | - | 0 W/m² | - |
| 1777633809 | 0° C | 1% | 1024.4 hPa | 0 mm | - | 0 W/m² | - |
| 1777633507 | -0.56° C | 1% | 1024.3 hPa | 0 mm | - | 0 W/m² | - |
| 1777633204 | -0.56° C | 1% | 1024.3 hPa | 0 mm | - | 0 W/m² | - |
| 1777632901 | -0.56° C | 1% | 1024.5 hPa | 0 mm | - | 0 W/m² | - |
| 1777632597 | 0° C | 1% | 1024.4 hPa | 0 mm | - | 0 W/m² | - |
| 1777632294 | -0.56° C | 1% | 1024.5 hPa | 0 mm | - | 0 W/m² | - |
| 1777631991 | 0° C | 1% | 1024.5 hPa | 0 mm | - | 0 W/m² | - |
| 1777631689 | 0° C | 1% | 1024.6 hPa | 0 mm | - | 0 W/m² | - |
* Rain latest hour (hover to see other rain measurements)
** Current wind speed in m/s (hover to see current wind gust speed)